When you browse on this site, cookies collect data to enhance your experience and personalize the content and advertising you see.
Visit our Privacy Policy to learn more. By continuing to use the site, you agree to this use of cookies and data.
  • en France
  • Liste des pays
  • À 7 jours
  • Température de l'eau
  • Carte satellitaire
  • Carte météo
  • Widgets météo
  • user-avatar
    Se connecter

    Météo par heure à Wyszembork

    Ce jour, 14 Décembre, Vendredi

    Heure Température Précipitation Vent Pression Humidité
    00:00 -2°C° 0 mm 2 m/s 754 mmHg 83%
    01:00 -2°C° 0 mm 3 m/s 754 mmHg 83%
    02:00 -2°C° 0 mm 3 m/s 754 mmHg 84%
    03:00 -2°C° 0 mm 3 m/s 754 mmHg 84%
    04:00 -4°C° 0 mm 3 m/s 754 mmHg 84%
    05:00 -4°C° 0 mm 3 m/s 754 mmHg 84%
    06:00 -4°C° 0 mm 3 m/s 755 mmHg 85%
    07:00 -4°C° 0 mm 3 m/s 755 mmHg 86%
    08:00 -4°C° 0 mm 3 m/s 755 mmHg 85%
    09:00 -2°C° 0 mm 3 m/s 755 mmHg 84%
    10:00 -2°C° 0 mm 3 m/s 756 mmHg 83%
    11:00 -2°C° 0 mm 3 m/s 756 mmHg 82%
    12:00 -2°C° 0 mm 3 m/s 756 mmHg 81%
    13:00 -1°C° 0 mm 3 m/s 756 mmHg 80%
    14:00 -2°C° 0 mm 3 m/s 756 mmHg 81%
    15:00 -2°C° 0 mm 2 m/s 756 mmHg 83%
    16:00 -2°C° 0 mm 2 m/s 757 mmHg 85%
    17:00 -2°C° 0 mm 2 m/s 757 mmHg 85%
    18:00 -2°C° 0 mm 2 m/s 757 mmHg 85%
    19:00 -2°C° 0 mm 2 m/s 757 mmHg 86%
    20:00 -2°C° 0 mm 2 m/s 757 mmHg 86%
    21:00 -2°C° 0 mm 2 m/s 757 mmHg 87%
    22:00 -2°C° 0 mm 2 m/s 758 mmHg 88%
    23:00 -2°C° 0 mm 2 m/s 758 mmHg 88%

    Demain, 15 Décembre, Samedi

    Heure Température Précipitation Vent Pression Humidité
    00:00 -2°C° 0 mm 2 m/s 758 mmHg 89%
    01:00 -2°C° 0 mm 2 m/s 758 mmHg 89%
    02:00 -2°C° 0 mm 2 m/s 758 mmHg 89%
    03:00 -2°C° 0 mm 2 m/s 758 mmHg 89%
    04:00 -2°C° 0 mm 2 m/s 758 mmHg 90%
    05:00 -2°C° 0 mm 2 m/s 758 mmHg 90%
    06:00 -4°C° 0 mm 3 m/s 759 mmHg 90%
    07:00 -4°C° 0 mm 3 m/s 759 mmHg 90%
    08:00 -2°C° 0 mm 3 m/s 759 mmHg 87%
    09:00 -2°C° 0 mm 3 m/s 759 mmHg 85%
    10:00 -2°C° 0 mm 3 m/s 759 mmHg 82%
    11:00 -2°C° 0 mm 3 m/s 759 mmHg 80%
    12:00 -2°C° 0 mm 3 m/s 759 mmHg 78%
    13:00 -2°C° 0 mm 3 m/s 759 mmHg 76%
    14:00 -2°C° 0 mm 3 m/s 759 mmHg 77%
    15:00 -2°C° 0 mm 3 m/s 759 mmHg 79%
    16:00 -2°C° 0 mm 3 m/s 759 mmHg 80%
    17:00 -2°C° 0 mm 3 m/s 759 mmHg 81%
    18:00 -2°C° 0 mm 3 m/s 759 mmHg 83%
    19:00 -2°C° 0 mm 3 m/s 759 mmHg 85%
    20:00 -2°C° 0 mm 3 m/s 759 mmHg 84%
    21:00 -2°C° 0 mm 3 m/s 758 mmHg 84%
    22:00 -2°C° 0 mm 3 m/s 758 mmHg 84%
    23:00 -2°C° 0 mm 3 m/s 758 mmHg 83%

    Après-demain, 16 Décembre, Dimanche

    Heure Température Précipitation Vent Pression Humidité
    00:00 -2°C° 0 mm 3 m/s 758 mmHg 83%
    01:00 -2°C° 0 mm 3 m/s 758 mmHg 82%
    02:00 -4°C° 0 mm 3 m/s 757 mmHg 82%
    03:00 -4°C° 0 mm 4 m/s 757 mmHg 81%
    04:00 -4°C° 0 mm 4 m/s 757 mmHg 81%
    05:00 -4°C° 0 mm 4 m/s 757 mmHg 80%
    06:00 -4°C° 0 mm 4 m/s 756 mmHg 79%
    07:00 -3°C° 0 mm 4 m/s 756 mmHg 78%
    08:00 -4°C° 0.1 mm 5 m/s 756 mmHg 78%
    09:00 -4°C° 0.1 mm 5 m/s 756 mmHg 78%
    10:00 -4°C° 0.1 mm 5 m/s 755 mmHg 78%
    11:00 -4°C° 0.2 mm 5 m/s 755 mmHg 79%
    12:00 -5°C° 0.2 mm 5 m/s 755 mmHg 80%
    13:00 -5°C° 0.2 mm 5 m/s 754 mmHg 82%
    14:00 -5°C° 0.4 mm 5 m/s 754 mmHg 83%
    15:00 -5°C° 0.4 mm 5 m/s 753 mmHg 85%
    16:00 -5°C° 0.4 mm 5 m/s 753 mmHg 87%
    17:00 -5°C° 0.6 mm 5 m/s 753 mmHg 89%
    18:00 -5°C° 0.6 mm 5 m/s 753 mmHg 90%
    19:00 -5°C° 0.6 mm 5 m/s 753 mmHg 91%
    20:00 -5°C° 0.5 mm 5 m/s 753 mmHg 91%
    21:00 -4°C° 0.5 mm 4 m/s 752 mmHg 91%
    22:00 -4°C° 0.5 mm 4 m/s 752 mmHg 91%
    23:00 -4°C° 0.2 mm 4 m/s 752 mmHg 91%

    17 Décembre, Lundi

    Heure Température Précipitation Vent Pression Humidité
    00:00 -4°C° 0.2 mm 4 m/s 752 mmHg 91%
    01:00 -4°C° 0.2 mm 4 m/s 752 mmHg 90%
    02:00 -4°C° 0 mm 4 m/s 752 mmHg 91%
    03:00 -4°C° 0 mm 4 m/s 752 mmHg 91%
    04:00 -4°C° 0 mm 3 m/s 751 mmHg 91%
    05:00 -4°C° 0 mm 3 m/s 751 mmHg 92%
    06:00 -4°C° 0 mm 3 m/s 752 mmHg 92%
    07:00 -4°C° 0 mm 3 m/s 752 mmHg 93%
    08:00 -4°C° 0 mm 3 m/s 752 mmHg 92%
    09:00 -4°C° 0 mm 3 m/s 752 mmHg 92%
    10:00 -4°C° 0 mm 3 m/s 752 mmHg 92%
    11:00 -4°C° 0 mm 3 m/s 752 mmHg 91%
    12:00 -2°C° 0 mm 2 m/s 752 mmHg 91%
    13:00 -2°C° 0 mm 2 m/s 752 mmHg 90%
    14:00 -2°C° 0 mm 2 m/s 752 mmHg 91%
    15:00 -2°C° 0 mm 2 m/s 752 mmHg 92%
    16:00 -3°C° 0 mm 2 m/s 752 mmHg 93%
    17:00 -3°C° 0 mm 2 m/s 752 mmHg 94%
    18:00 -3°C° 0 mm 2 m/s 753 mmHg 94%
    19:00 -3°C° 0 mm 2 m/s 753 mmHg 95%
    20:00 -1°C° 0 mm 1 m/s 753 mmHg 95%
    21:00 -1°C° 0 mm 1 m/s 753 mmHg 95%
    22:00 -1°C° 0 mm 1 m/s 753 mmHg 95%
    23:00 -1°C° 0 mm 1 m/s 754 mmHg 95%

    18 Décembre, Mardi

    Heure Température Précipitation Vent Pression Humidité
    00:00 -2°C° 0 mm 1 m/s 754 mmHg 95%
    01:00 -2°C° 0 mm 1 m/s 754 mmHg 95%
    02:00 -2°C° 0 mm 1 m/s 754 mmHg 95%
    03:00 -2°C° 0 mm 1 m/s 754 mmHg 94%
    04:00 -3°C° 0 mm 0 m/s 754 mmHg 94%
    05:00 -3°C° 0 mm 0 m/s 754 mmHg 94%
    06:00 -3°C° 0 mm 0 m/s 755 mmHg 93%
    07:00 -3°C° 0 mm 0 m/s 755 mmHg 93%
    08:00 -3°C° 0 mm 0 m/s 755 mmHg 92%
    09:00 -2°C° 0 mm 0 m/s 755 mmHg 91%
    10:00 -2°C° 0 mm 0 m/s 756 mmHg 89%
    11:00 -2°C° 0 mm 0 m/s 756 mmHg 88%
    12:00 -1°C° 0 mm 0 m/s 756 mmHg 87%
    13:00 -1°C° 0 mm 0 m/s 756 mmHg 85%
    14:00 -2°C° 0 mm 0 m/s 756 mmHg 87%
    15:00 -2°C° 0 mm 0 m/s 756 mmHg 88%
    16:00 -2°C° 0 mm 1 m/s 756 mmHg 89%
    17:00 -2°C° 0 mm 1 m/s 756 mmHg 90%
    18:00 -2°C° 0 mm 1 m/s 756 mmHg 90%
    19:00 -3°C° 0 mm 1 m/s 756 mmHg 90%
    20:00 -3°C° 0 mm 1 m/s 756 mmHg 90%
    21:00 -3°C° 0 mm 1 m/s 756 mmHg 91%
    22:00 -3°C° 0 mm 1 m/s 756 mmHg 91%
    23:00 -3°C° 0 mm 1 m/s 756 mmHg 91%

    19 Décembre, Mercredi

    Heure Température Précipitation Vent Pression Humidité
    00:00 -3°C° 0 mm 1 m/s 755 mmHg 92%
    01:00 -3°C° 0 mm 1 m/s 755 mmHg 92%
    02:00 -6°C° 0 mm 2 m/s 755 mmHg 93%
    03:00 -6°C° 0 mm 2 m/s 755 mmHg 93%
    04:00 -6°C° 0 mm 2 m/s 755 mmHg 93%
    05:00 -6°C° 0 mm 2 m/s 755 mmHg 93%
    06:00 -7°C° 0 mm 3 m/s 754 mmHg 94%
    07:00 -7°C° 0 mm 3 m/s 754 mmHg 94%
    08:00 -7°C° 0 mm 3 m/s 754 mmHg 93%
    09:00 -7°C° 0 mm 4 m/s 754 mmHg 92%
    10:00 -7°C° 0 mm 4 m/s 754 mmHg 91%
    11:00 -5°C° 0 mm 4 m/s 753 mmHg 90%
    12:00 -6°C° 0 mm 5 m/s 753 mmHg 90%
    13:00 -5°C° 0 mm 5 m/s 752 mmHg 89%
    14:00 -5°C° 0 mm 5 m/s 752 mmHg 90%
    15:00 -5°C° 0 mm 5 m/s 752 mmHg 90%
    16:00 -6°C° 0 mm 5 m/s 752 mmHg 91%
    17:00 -6°C° 0 mm 5 m/s 751 mmHg 91%
    18:00 -5°C° 0 mm 5 m/s 751 mmHg 91%
    19:00 -5°C° 0 mm 5 m/s 751 mmHg 91%
    20:00 -5°C° 0 mm 5 m/s 751 mmHg 90%
    21:00 -5°C° 0 mm 6 m/s 750 mmHg 90%
    22:00 -5°C° 0 mm 6 m/s 750 mmHg 90%
    23:00 -5°C° 0 mm 5 m/s 750 mmHg 90%
    Voir plus